,,,PA_Meas_PMT16A,,PR_Meas_QMR101_102,,RH_Meas_QMH101,,SR_Meas_QMS101,,TA_Meas_QMH101,,GenWind,,GenWind,
date,time,status,PA,status,PR,status,RH,status,SR,status,TA,status,DirAvg,status,SpdAvg,
2012-08-29, 00:00:04,VALID,1002.8,VALID,0,VALID,93.4247,VALID,0,VALID,23.389,VALID,17,VALID,0.933594,
2012-08-29, 00:01:04,VALID,1002.78,VALID,0,VALID,93.3179,VALID,0,VALID,23.4067,VALID,17,VALID,0.919141,
2012-08-29, 00:02:04,VALID,1002.79,VALID,0,VALID,93.1119,VALID,0,VALID,23.4067,VALID,17,VALID,0.891016,
2012-08-29, 00:03:04,VALID,1002.75,VALID,0,VALID,93.0737,VALID,0,VALID,23.4263,VALID,17,VALID,0.591797,
2012-08-29, 00:04:04,VALID,1002.77,VALID,0,VALID,93.0432,VALID,0,VALID,23.4067,VALID,17,VALID,0.296875,
2012-08-29, 00:05:04,VALID,1002.75,VALID,0,VALID,93.0127,VALID,0,VALID,23.428,VALID,17,VALID,0.338281,
2012-08-29, 00:06:04,VALID,1002.73,VALID,0,VALID,93.0508,VALID,0,VALID,23.428,VALID,17,VALID,0.360156,
2012-08-29, 00:07:04,VALID,1002.69,VALID,0,VALID,93.1043,VALID,0,VALID,23.4085,VALID,17,VALID,0.446484,
2012-08-29, 00:08:04,VALID,1002.66,VALID,0,VALID,93.1653,VALID,0,VALID,23.428,VALID,17,VALID,0.479297,
2012-08-29, 00:09:04,VALID,1002.67,VALID,0,VALID,93.1882,VALID,0,VALID,23.4085,VALID,17,VALID,0.461719,
2012-08-29, 00:10:04,VALID,1002.64,VALID,0,VALID,93.1805,VALID,0,VALID,23.4263,VALID,17,VALID,0.278906,
2012-08-29, 00:11:04,VALID,1002.64,VALID,0,VALID,93.15,VALID,0,VALID,23.428,VALID,17,VALID,0.0175781,
2012-08-29, 00:12:04,VALID,1002.61,VALID,0,VALID,93.1805,VALID,0,VALID,23.4067,VALID,17,VALID,0.333984,
2012-08-29, 00:13:04,VALID,1002.56,VALID,0,VALID,93.2874,VALID,0,VALID,23.4085,VALID,17,VALID,0.315234,
2012-08-29, 00:14:04,VALID,1002.53,VALID,0,VALID,93.4705,VALID,0,VALID,23.428,VALID,17,VALID,0.00507812,
2012-08-29, 00:15:04,VALID,1002.54,VALID,0,VALID,93.5849,VALID,0,VALID,23.428,VALID,17,VALID,0,
2012-08-29, 00:16:04,VALID,1002.54,VALID,0,VALID,93.6688,VALID,0,VALID,23.428,VALID,17,VALID,0,
2012-08-29, 00:17:04,VALID,1002.5,VALID,0,VALID,93.7223,VALID,0,VALID,23.4085,VALID,17,VALID,0,
2012-08-29, 00:18:04,VALID,1002.48,VALID,0,VALID,93.7451,VALID,0,VALID,23.389,VALID,17,VALID,0,
2012-08-29, 00:19:04,VALID,1002.48,VALID,0,VALID,93.852,VALID,0,VALID,23.389,VALID,17,VALID,0.304297,
2012-08-29, 00:20:04,VALID,1002.44,VALID,0,VALID,94.0198,VALID,0,VALID,23.428,VALID,17,VALID,0,
2012-08-29, 00:21:04,VALID,1002.41,VALID,0,VALID,94.1419,VALID,0,VALID,23.428,VALID,17,VALID,0.414063,
2012-08-29, 00:22:04,VALID,1002.4,VALID,0,VALID,94.1037,VALID,0,VALID,23.4085,VALID,17,VALID,0.558594,
2012-08-29, 00:23:04,VALID,1002.38,VALID,0,VALID,94.0656,VALID,0,VALID,23.3872,VALID,17,VALID,0.371094,
2012-08-29, 00:24:04,VALID,1002.36,VALID,0,VALID,93.9817,VALID,0,VALID,23.3695,VALID,17,VALID,0.252344,
2012-08-29, 00:25:04,VALID,1002.33,VALID,0,VALID,94.0198,VALID,0,VALID,23.35,VALID,17,VALID,0.316016,
2012-08-29, 00:26:04,VALID,1002.31,VALID,0,VALID,93.9969,VALID,0,VALID,23.35,VALID,17,VALID,0.299609,
2012-08-29, 00:27:04,VALID,1002.27,VALID,0,VALID,94.0045,VALID,0,VALID,23.2915,VALID,17,VALID,0.258984,
2012-08-29, 00:28:04,VALID,1002.24,VALID,0,VALID,94.0045,VALID,0,VALID,23.2719,VALID,17,VALID,0.125391,
2012-08-29, 00:29:04,VALID,1002.25,VALID,0,VALID,94.1343,VALID,0,VALID,23.2524,VALID,17,VALID,0.364453,
2012-08-29, 00:30:04,VALID,1002.21,VALID,0,VALID,94.4089,VALID,0,VALID,23.3305,VALID,17,VALID,0.442187,
2012-08-29, 00:31:04,VALID,1002.16,VALID,0,VALID,94.5539,VALID,0,VALID,23.3695,VALID,17,VALID,0.764063,
2012-08-29, 00:32:04,VALID,1002.15,VALID,0,VALID,94.6073,VALID,0,VALID,23.4458,VALID,17,VALID,0.708203,
2012-08-29, 00:33:04,VALID,1002.12,VALID,0,VALID,94.4928,VALID,0,VALID,23.5646,VALID,124,VALID,1.06445,
2012-08-29, 00:34:04,VALID,1002.13,VALID,0,VALID,94.2105,VALID,0,VALID,23.6622,VALID,133,VALID,1.27891,
2012-08-29, 00:35:04,VALID,1002.12,VALID,0,VALID,93.768,VALID,0,VALID,23.7793,VALID,137,VALID,1.4043,
2012-08-29, 00:36:04,VALID,1002.07,VALID,0,VALID,93.2111,VALID,0,VALID,23.8945,VALID,149,VALID,1.09023,
2012-08-29, 00:37:04,VALID,1002.09,VALID,0,VALID,92.5397,VALID,0,VALID,24.0329,VALID,149,VALID,0.961328,
2012-08-29, 00:38:04,VALID,1002.08,VALID,0,VALID,91.8835,VALID,0,VALID,24.111,VALID,149,VALID,0.755078,
2012-08-29, 00:39:04,VALID,1002.09,VALID,0,VALID,91.2884,VALID,0,VALID,24.15,VALID,149,VALID,0.648438,
2012-08-29, 00:40:04,VALID,1002.06,VALID,0,VALID,90.884,VALID,0,VALID,24.1891,VALID,149,VALID,0.596484,
2012-08-29, 00:41:04,VALID,1002.09,VALID,0,VALID,90.4263,VALID,0,VALID,24.2476,VALID,149,VALID,1.29883,
2012-08-29, 00:42:04,VALID,1002.06,VALID,0,VALID,89.9151,VALID,0,VALID,24.3452,VALID,149,VALID,0.571484,
2012-08-29, 00:43:04,VALID,1002.09,VALID,0,VALID,89.5946,VALID,0,VALID,24.3433,VALID,149,VALID,0.420703,
2012-08-29, 00:44:04,VALID,1002.1,VALID,0,VALID,89.3734,VALID,0,VALID,24.3842,VALID,149,VALID,0,
2012-08-29, 00:45:04,VALID,1002.08,VALID,0,VALID,89.3886,VALID,0,VALID,24.4037,VALID,149,VALID,0.188672,
2012-08-29, 00:46:04,VALID,1002.09,VALID,0,VALID,89.175,VALID,0,VALID,24.3452,VALID,149,VALID,0.563281,
2012-08-29, 00:47:04,VALID,1002.12,VALID,0,VALID,89.6709,VALID,0,VALID,24.2263,VALID,149,VALID,0.509375,
2012-08-29, 00:48:04,VALID,1002.16,VALID,0,VALID,90.1821,VALID,0,VALID,24.111,VALID,149,VALID,0.593359,
2012-08-29, 00:49:04,VALID,1002.17,VALID,0,VALID,90.7162,VALID,0,VALID,24.0116,VALID,149,VALID,0.45,
2012-08-29, 00:50:05,VALID,1002.18,VALID,0,VALID,91.3113,VALID,0,VALID,23.914,VALID,149,VALID,0.541797,
2012-08-29, 00:51:04,VALID,1002.23,VALID,0,VALID,91.8454,VALID,0,VALID,23.836,VALID,149,VALID,0.639844,
2012-08-29, 00:52:05,VALID,1002.25,VALID,0,VALID,92.3337,VALID,0,VALID,23.797,VALID,149,VALID,0.579687,
2012-08-29, 00:53:05,VALID,1002.25,VALID,0,VALID,92.7151,VALID,0,VALID,23.7579,VALID,149,VALID,0.799609,
2012-08-29, 00:54:05,VALID,1002.25,VALID,0,VALID,92.7914,VALID,0,VALID,23.7384,VALID,149,VALID,0.714844,
2012-08-29, 00:55:05,VALID,1002.25,VALID,0,VALID,92.944,VALID,0,VALID,23.7597,VALID,149,VALID,0.694922,
2012-08-29, 00:56:05,VALID,1002.25,VALID,0,VALID,93.0127,VALID,0,VALID,23.7207,VALID,149,VALID,0.746484,
2012-08-29, 00:57:05,VALID,1002.23,VALID,0,VALID,93.0585,VALID,0,VALID,23.7402,VALID,149,VALID,0.598437,
2012-08-29, 00:58:05,VALID,1002.2,VALID,0,VALID,93.0814,VALID,0,VALID,23.7402,VALID,149,VALID,0.592969,
2012-08-29, 00:59:05,VALID,1002.16,VALID,0,VALID,93.0127,VALID,0,VALID,23.6994,VALID,149,VALID,0.813672,
2012-08-29, 01:00:05,VALID,1002.15,VALID,0,VALID,93.1043,VALID,0,VALID,23.6409,VALID,149,VALID,0.472656,
2012-08-29, 01:01:05,VALID,1002.12,VALID,0,VALID,93.3408,VALID,0,VALID,23.6427,VALID,149,VALID,0.1875,
2012-08-29, 01:02:05,VALID,1002.12,VALID,0,VALID,93.4476,VALID,0,VALID,23.5823,VALID,149,VALID,0.138281,
2012-08-29, 01:03:05,VALID,1002.1,VALID,0,VALID,93.5926,VALID,0,VALID,23.6036,VALID,149,VALID,0.00195313,
2012-08-29, 01:04:05,VALID,1002.05,VALID,0,VALID,93.6765,VALID,0,VALID,23.5841,VALID,149,VALID,0,
2012-08-29, 01:05:05,VALID,1002.05,VALID,0,VALID,93.8443,VALID,0,VALID,23.5823,VALID,149,VALID,0.162109,
2012-08-29, 01:06:05,VALID,1002.03,VALID,0,VALID,93.8901,VALID,0,VALID,23.6036,VALID,149,VALID,0.174219,
2012-08-29, 01:07:05,VALID,1001.98,VALID,0,VALID,93.9054,VALID,0,VALID,23.5823,VALID,149,VALID,0,
2012-08-29, 01:08:05,VALID,1001.94,VALID,0,VALID,93.9969,VALID,0,VALID,23.6019,VALID,149,VALID,0.0316406,
2012-08-29, 01:09:05,VALID,1001.93,VALID,0,VALID,94.0427,VALID,0,VALID,23.6232,VALID,149,VALID,0.403516,
2012-08-29, 01:10:05,VALID,1001.89,VALID,0,VALID,94.0122,VALID,0,VALID,23.6799,VALID,149,VALID,0.780078,
2012-08-29, 01:11:05,VALID,1001.89,VALID,0,VALID,93.8443,VALID,0,VALID,23.7579,VALID,149,VALID,1.07578,
2012-08-29, 01:12:05,VALID,1001.85,VALID,0,VALID,93.4552,VALID,0,VALID,23.8555,VALID,149,VALID,1.09883,
2012-08-29, 01:13:05,VALID,1001.84,VALID,0,VALID,92.8983,VALID,0,VALID,23.9939,VALID,149,VALID,1.05547,
2012-08-29, 01:14:05,VALID,1001.84,VALID,0,VALID,92.2497,VALID,0,VALID,24.0897,VALID,149,VALID,1.07461,
2012-08-29, 01:15:05,VALID,1001.84,VALID,0,VALID,91.586,VALID,0,VALID,24.1891,VALID,149,VALID,0.997656,
2012-08-29, 01:16:05,VALID,1001.83,VALID,0,VALID,91.0519,VALID,0,VALID,24.2067,VALID,149,VALID,1.03125,
2012-08-29, 01:17:05,VALID,1001.81,VALID,0,VALID,90.7162,VALID,0,VALID,24.2263,VALID,149,VALID,0.963281,
2012-08-29, 01:18:05,VALID,1001.77,VALID,0,VALID,90.5407,VALID,0,VALID,24.2476,VALID,149,VALID,0.85,
2012-08-29, 01:19:05,VALID,1001.74,VALID,0,VALID,90.6094,VALID,0,VALID,24.2067,VALID,149,VALID,0.973828,
2012-08-29, 01:20:05,VALID,1001.71,VALID,0,VALID,90.7238,VALID,0,VALID,24.2067,VALID,149,VALID,0.710156,
2012-08-29, 01:21:05,VALID,1001.7,VALID,0,VALID,90.6628,VALID,0,VALID,24.2086,VALID,149,VALID,0.733203,
2012-08-29, 01:22:05,VALID,1001.64,VALID,0,VALID,90.6399,VALID,0,VALID,24.1696,VALID,149,VALID,0.805469,
2012-08-29, 01:23:05,VALID,1001.63,VALID,0,VALID,90.8077,VALID,0,VALID,24.1092,VALID,149,VALID,0.889453,
2012-08-29, 01:24:05,VALID,1001.63,VALID,0,VALID,91.1282,VALID,0,VALID,24.072,VALID,149,VALID,0.834766,
2012-08-29, 01:25:05,VALID,1001.63,VALID,0,VALID,91.3876,VALID,0,VALID,24.0329,VALID,149,VALID,0.578516,
2012-08-29, 01:26:05,VALID,1001.62,VALID,0,VALID,91.5707,VALID,0,VALID,23.9336,VALID,149,VALID,0.664844,
2012-08-29, 01:27:05,VALID,1001.59,VALID,0,VALID,91.8148,VALID,0,VALID,23.875,VALID,149,VALID,0.973047,
2012-08-29, 01:28:05,VALID,1001.56,VALID,0,VALID,92.2879,VALID,0,VALID,23.8165,VALID,149,VALID,0.883984,
2012-08-29, 01:29:05,VALID,1001.57,VALID,0,VALID,92.6312,VALID,0,VALID,23.7579,VALID,149,VALID,0.955469,
2012-08-29, 01:30:05,VALID,1001.56,VALID,0,VALID,93.089,VALID,0,VALID,23.7189,VALID,149,VALID,0.956641,
2012-08-29, 01:31:05,VALID,1001.55,VALID,0,VALID,93.2797,VALID,0,VALID,23.6799,VALID,149,VALID,1.03086,
2012-08-29, 01:32:05,VALID,1001.51,VALID,0,VALID,93.5239,VALID,0,VALID,23.6409,VALID,149,VALID,1.14766,
2012-08-29, 01:33:05,VALID,1001.55,VALID,0,VALID,93.8138,VALID,0,VALID,23.6019,VALID,149,VALID,0.957031,
2012-08-29, 01:34:05,VALID,1001.56,VALID,0,VALID,94.0122,VALID,0,VALID,23.5823,VALID,149,VALID,0.834375,
2012-08-29, 01:35:05,VALID,1001.56,VALID,0,VALID,94.1495,VALID,0,VALID,23.5646,VALID,149,VALID,0.792969,
2012-08-29, 01:36:05,VALID,1001.59,VALID,0,VALID,94.0885,VALID,0,VALID,23.4653,VALID,149,VALID,0.463672,
2012-08-29, 01:37:05,VALID,1001.58,VALID,0,VALID,94.1877,VALID,0,VALID,23.428,VALID,149,VALID,0.753906,
2012-08-29, 01:38:05,VALID,1001.62,VALID,0,VALID,94.4013,VALID,0,VALID,23.4085,VALID,149,VALID,0.353516,
2012-08-29, 01:39:05,VALID,1001.63,VALID,0,VALID,94.5005,VALID,0,VALID,23.389,VALID,149,VALID,0.452344,
2012-08-29, 01:40:05,VALID,1001.64,VALID,0,VALID,94.6226,VALID,0,VALID,23.3695,VALID,149,VALID,0.480078,
2012-08-29, 01:41:05,VALID,1001.65,VALID,0,VALID,94.7523,VALID,0,VALID,23.3695,VALID,149,VALID,0.48125,
2012-08-29, 01:42:05,VALID,1001.67,VALID,0,VALID,94.8438,VALID,0,VALID,23.3695,VALID,149,VALID,0.621094,
2012-08-29, 01:43:05,VALID,1001.67,VALID,0,VALID,94.9277,VALID,0,VALID,23.35,VALID,149,VALID,0.594141,
2012-08-29, 01:44:05,VALID,1001.71,VALID,0,VALID,94.943,VALID,0,VALID,23.3305,VALID,149,VALID,0.616406,
2012-08-29, 01:45:05,VALID,1001.7,VALID,0,VALID,94.9659,VALID,0,VALID,23.3305,VALID,149,VALID,0.488281,
2012-08-29, 01:46:05,VALID,1001.7,VALID,0,VALID,94.9583,VALID,0,VALID,23.3305,VALID,149,VALID,0.620313,
2012-08-29, 01:47:05,VALID,1001.73,VALID,0,VALID,94.9583,VALID,0,VALID,23.2897,VALID,149,VALID,0.697266,
2012-08-29, 01:48:05,VALID,1001.74,VALID,0,VALID,94.9125,VALID,0,VALID,23.311,VALID,149,VALID,0.692969,
2012-08-29, 01:49:05,VALID,1001.77,VALID,0,VALID,94.882,VALID,0,VALID,23.2897,VALID,149,VALID,0.784766,
2012-08-29, 01:50:05,VALID,1001.8,VALID,0,VALID,94.8743,VALID,0,VALID,23.311,VALID,149,VALID,0.930469,
2012-08-29, 01:51:05,VALID,1001.78,VALID,0,VALID,94.8133,VALID,0,VALID,23.2915,VALID,9,VALID,1.19727,
2012-08-29, 01:52:05,VALID,1001.77,VALID,0,VALID,94.7675,VALID,0,VALID,23.2719,VALID,9,VALID,1.27305,
2012-08-29, 01:53:05,VALID,1001.78,VALID,0,VALID,94.5768,VALID,0,VALID,23.2702,VALID,9,VALID,1.25859,
2012-08-29, 01:54:05,VALID,1001.76,VALID,0,VALID,94.1724,VALID,0,VALID,23.2719,VALID,9,VALID,1.05039,
2012-08-29, 01:55:05,VALID,1001.74,VALID,0,VALID,93.8672,VALID,0,VALID,23.2719,VALID,9,VALID,0.916016,
2012-08-29, 01:56:05,VALID,1001.71,VALID,0,VALID,93.7299,VALID,0,VALID,23.2719,VALID,9,VALID,0.823047,
2012-08-29, 01:57:05,VALID,1001.72,VALID,0,VALID,93.6231,VALID,0,VALID,23.311,VALID,9,VALID,0.934766,
2012-08-29, 01:58:05,VALID,1001.69,VALID,0,VALID,93.3713,VALID,0,VALID,23.311,VALID,9,VALID,0.908203,
2012-08-29, 01:59:05,VALID,1001.7,VALID,0,VALID,93.15,VALID,0,VALID,23.2915,VALID,9,VALID,1.06641,
2012-08-29, 02:00:05,VALID,1001.67,VALID,0,VALID,93.1348,VALID,0,VALID,23.2915,VALID,9,VALID,1.11719,
2012-08-29, 02:01:05,VALID,1001.62,VALID,0,VALID,93.15,VALID,0,VALID,23.311,VALID,9,VALID,1.08125,
2012-08-29, 02:02:05,VALID,1001.62,VALID,0,VALID,92.9669,VALID,0,VALID,23.2915,VALID,9,VALID,0.565625,
2012-08-29, 02:03:05,VALID,1001.62,VALID,0,VALID,92.8677,VALID,0,VALID,23.2719,VALID,9,VALID,0.181641,
2012-08-29, 02:04:05,VALID,1001.59,VALID,0,VALID,92.8372,VALID,0,VALID,23.2524,VALID,9,VALID,0.0839844,
2012-08-29, 02:05:05,VALID,1001.54,VALID,0,VALID,92.9288,VALID,0,VALID,23.2134,VALID,9,VALID,0.234766,
2012-08-29, 02:06:05,VALID,1001.54,VALID,0,VALID,93.0356,VALID,0,VALID,23.1744,VALID,9,VALID,0.498047,
2012-08-29, 02:07:05,VALID,1001.54,VALID,0,VALID,93.1729,VALID,0,VALID,23.1549,VALID,9,VALID,0.486328,
2012-08-29, 02:08:05,VALID,1001.52,VALID,0,VALID,93.3179,VALID,0,VALID,23.1159,VALID,9,VALID,0.399219,
2012-08-29, 02:09:05,VALID,1001.5,VALID,0,VALID,93.4247,VALID,0,VALID,23.0769,VALID,9,VALID,0.317578,
2012-08-29, 02:10:05,VALID,1001.49,VALID,0,VALID,93.4781,VALID,0,VALID,23.0769,VALID,9,VALID,0.028125,
2012-08-29, 02:11:05,VALID,1001.43,VALID,0,VALID,93.562,VALID,0,VALID,23.0378,VALID,9,VALID,0,
2012-08-29, 02:12:05,VALID,1001.4,VALID,0,VALID,93.6307,VALID,0,VALID,22.9988,VALID,9,VALID,0,
2012-08-29, 02:13:05,VALID,1001.37,VALID,0,VALID,93.7146,VALID,0,VALID,22.9793,VALID,9,VALID,0.297656,
2012-08-29, 02:14:05,VALID,1001.29,VALID,0,VALID,93.8901,VALID,0,VALID,22.9793,VALID,9,VALID,0.214062,
2012-08-29, 02:15:05,VALID,1001.26,VALID,0,VALID,94.0198,VALID,0,VALID,22.9793,VALID,9,VALID,0.230859,
2012-08-29, 02:16:05,VALID,1001.24,VALID,0,VALID,94.058,VALID,0,VALID,22.9598,VALID,9,VALID,0.339844,
2012-08-29, 02:17:05,VALID,1001.23,VALID,0,VALID,94.1495,VALID,0,VALID,22.9385,VALID,9,VALID,0.209766,
2012-08-29, 02:18:05,VALID,1001.2,VALID,0,VALID,94.2792,VALID,0,VALID,22.9403,VALID,9,VALID,0.324219,
2012-08-29, 02:19:05,VALID,1001.18,VALID,0,VALID,94.3631,VALID,0,VALID,22.9403,VALID,9,VALID,0.513672,
2012-08-29, 02:20:05,VALID,1001.16,VALID,0,VALID,94.4547,VALID,0,VALID,22.9403,VALID,9,VALID,0.5875,
2012-08-29, 02:21:05,VALID,1001.13,VALID,0,VALID,94.6607,VALID,0,VALID,22.9581,VALID,9,VALID,0.689844,
2012-08-29, 02:22:05,VALID,1001.12,VALID,0,VALID,94.8209,VALID,0,VALID,22.9988,VALID,9,VALID,0.771484,
2012-08-29, 02:23:05,VALID,1001.12,VALID,0,VALID,94.8972,VALID,0,VALID,23.0183,VALID,9,VALID,0.656641,
2012-08-29, 02:24:05,VALID,1001.08,VALID,0,VALID,94.9888,VALID,0,VALID,23.0378,VALID,9,VALID,0.668359,
2012-08-29, 02:25:05,VALID,1001.07,VALID,0,VALID,95.0269,VALID,0,VALID,23.0378,VALID,9,VALID,0.59375,
2012-08-29, 02:26:05,VALID,1001.03,VALID,0,VALID,95.0651,VALID,0,VALID,23.0573,VALID,9,VALID,0.45,
2012-08-29, 02:27:05,VALID,1001.01,VALID,0,VALID,95.1032,VALID,0.104696,VALID,23.0573,VALID,9,VALID,0.350781,
2012-08-29, 02:28:05,VALID,1001.03,VALID,0,VALID,95.1337,VALID,0,VALID,23.0964,VALID,9,VALID,0.292578,
2012-08-29, 02:29:05,VALID,1000.97,VALID,0,VALID,95.1871,VALID,0,VALID,23.1354,VALID,9,VALID,0.254297,
2012-08-29, 02:30:05,VALID,1001,VALID,0,VALID,95.2329,VALID,0,VALID,23.1744,VALID,9,VALID,0.490234,
2012-08-29, 02:31:05,VALID,1000.99,VALID,0,VALID,95.2711,VALID,0,VALID,23.2524,VALID,9,VALID,0.669922,
2012-08-29, 02:32:05,VALID,1000.95,VALID,0,VALID,95.3016,VALID,0,VALID,23.2702,VALID,9,VALID,0.182422,
2012-08-29, 02:33:05,VALID,1000.99,VALID,0,VALID,95.2711,VALID,0,VALID,23.3305,VALID,9,VALID,0.385938,
2012-08-29, 02:34:05,VALID,1001.02,VALID,0,VALID,95.2177,VALID,0,VALID,23.35,VALID,9,VALID,0.09375,
2012-08-29, 02:35:05,VALID,1001.02,VALID,0,VALID,95.1032,VALID,0,VALID,23.3287,VALID,9,VALID,0.1625,
2012-08-29, 02:36:05,VALID,1001.04,VALID,0,VALID,94.9888,VALID,0,VALID,23.35,VALID,9,VALID,0.135547,
2012-08-29, 02:37:05,VALID,1001.02,VALID,0,VALID,94.882,VALID,0,VALID,23.3482,VALID,131,VALID,0.441797,
2012-08-29, 02:38:05,VALID,1001.04,VALID,0,VALID,94.592,VALID,0,VALID,23.3305,VALID,123,VALID,0.644531,
2012-08-29, 02:39:05,VALID,1001.03,VALID,0,VALID,94.4318,VALID,0,VALID,23.3305,VALID,110,VALID,0.380078,
2012-08-29, 02:40:05,VALID,1001.03,VALID,0,VALID,93.8825,VALID,0,VALID,23.2915,VALID,110,VALID,0.587891,
2012-08-29, 02:41:05,VALID,1001.05,VALID,0,VALID,93.4705,VALID,0,VALID,23.1939,VALID,110,VALID,0.194141,
2012-08-29, 02:42:05,VALID,1001.02,VALID,0,VALID,93.5391,VALID,0,VALID,23.1354,VALID,110,VALID,0.160547,
2012-08-29, 02:43:05,VALID,1000.99,VALID,0,VALID,93.8443,VALID,0,VALID,23.1354,VALID,110,VALID,0.401563,
2012-08-29, 02:44:05,VALID,1000.97,VALID,0,VALID,94.058,VALID,0,VALID,23.1354,VALID,110,VALID,0.48125,
2012-08-29, 02:45:05,VALID,1000.95,VALID,0,VALID,94.2487,VALID,0,VALID,23.1159,VALID,110,VALID,0.658203,
2012-08-29, 02:46:05,VALID,1000.95,VALID,0,VALID,94.47,VALID,0,VALID,23.0964,VALID,110,VALID,0.594531,
2012-08-29, 02:47:05,VALID,1000.94,VALID,0,VALID,94.6302,VALID,0.104696,VALID,23.1159,VALID,110,VALID,0.701563,
2012-08-29, 02:48:05,VALID,1000.95,VALID,0,VALID,94.7446,VALID,0,VALID,23.1159,VALID,110,VALID,0.723047,
2012-08-29, 02:49:05,VALID,1000.97,VALID,0,VALID,94.8362,VALID,0,VALID,23.1159,VALID,110,VALID,0.688672,
2012-08-29, 02:50:05,VALID,1000.97,VALID,0,VALID,94.943,VALID,0,VALID,23.1354,VALID,110,VALID,0.641797,
2012-08-29, 02:51:05,VALID,1000.99,VALID,0,VALID,95.004,VALID,0,VALID,23.1354,VALID,110,VALID,0.510156,
2012-08-29, 02:52:05,VALID,1001.03,VALID,0,VALID,95.0956,VALID,0,VALID,23.1549,VALID,110,VALID,0.403516,
2012-08-29, 02:53:05,VALID,1001.03,VALID,0,VALID,95.0956,VALID,0,VALID,23.2134,VALID,110,VALID,0.580078,
2012-08-29, 02:54:05,VALID,1001.04,VALID,0,VALID,95.0727,VALID,0,VALID,23.2329,VALID,110,VALID,0.575,
2012-08-29, 02:55:05,VALID,1001.06,VALID,0,VALID,95.0345,VALID,0,VALID,23.2329,VALID,110,VALID,0.567187,
2012-08-29, 02:56:05,VALID,1001.06,VALID,0,VALID,95.0117,VALID,0,VALID,23.2524,VALID,110,VALID,0.762891,
2012-08-29, 02:57:05,VALID,1001.08,VALID,0,VALID,94.9659,VALID,0,VALID,23.2524,VALID,110,VALID,0.678516,
2012-08-29, 02:58:05,VALID,1001.09,VALID,0,VALID,94.9659,VALID,0,VALID,23.2329,VALID,110,VALID,0.626953,
2012-08-29, 02:59:05,VALID,1001.09,VALID,0,VALID,94.9735,VALID,0,VALID,23.2329,VALID,110,VALID,0.585938,
2012-08-29, 03:00:05,VALID,1001.1,VALID,0,VALID,95.0574,VALID,0,VALID,23.2329,VALID,110,VALID,0.382813,
2012-08-29, 03:01:05,VALID,1001.1,VALID,0,VALID,95.0422,VALID,0,VALID,23.2329,VALID,110,VALID,0.239453,
2012-08-29, 03:02:05,VALID,1001.09,VALID,0,VALID,95.0498,VALID,0,VALID,23.2329,VALID,110,VALID,0.397266,
2012-08-29, 03:03:05,VALID,1001.15,VALID,0,VALID,94.9964,VALID,0,VALID,23.2329,VALID,110,VALID,0.307813,
2012-08-29, 03:04:05,VALID,1001.15,VALID,0,VALID,94.9506,VALID,0,VALID,23.1939,VALID,110,VALID,0.339063,
2012-08-29, 03:05:05,VALID,1001.12,VALID,0,VALID,94.8972,VALID,0,VALID,23.1957,VALID,110,VALID,0.363281,
2012-08-29, 03:06:05,VALID,1001.14,VALID,0,VALID,94.9506,VALID,0,VALID,23.1354,VALID,110,VALID,0.465625,
2012-08-29, 03:07:05,VALID,1001.16,VALID,0,VALID,94.9964,VALID,0,VALID,23.1354,VALID,110,VALID,0.340625,
2012-08-29, 03:08:05,VALID,1001.18,VALID,0,VALID,94.9888,VALID,0,VALID,23.0964,VALID,110,VALID,0.892969,
2012-08-29, 03:09:05,VALID,1001.25,VALID,0,VALID,95.0269,VALID,0,VALID,23.0573,VALID,32,VALID,0.841016,
2012-08-29, 03:10:05,VALID,1001.26,VALID,0,VALID,95.0498,VALID,0,VALID,23.0183,VALID,15,VALID,1.2957,
2012-08-29, 03:11:05,VALID,1001.29,VALID,0,VALID,95.0117,VALID,0,VALID,22.9615,VALID,15,VALID,1.31367,
2012-08-29, 03:12:05,VALID,1001.29,VALID,0,VALID,94.9659,VALID,0,VALID,22.9208,VALID,15,VALID,1.29336,
2012-08-29, 03:13:05,VALID,1001.3,VALID,0,VALID,94.9583,VALID,0,VALID,22.8818,VALID,15,VALID,0.735156,
2012-08-29, 03:14:05,VALID,1001.3,VALID,0,VALID,94.9888,VALID,0,VALID,22.8605,VALID,15,VALID,0.685547,
2012-08-29, 03:15:05,VALID,1001.31,VALID,0,VALID,94.9964,VALID,0,VALID,22.841,VALID,15,VALID,1.08984,
2012-08-29, 03:16:05,VALID,1001.27,VALID,0,VALID,94.9125,VALID,0,VALID,22.8232,VALID,15,VALID,1.375,
2012-08-29, 03:17:05,VALID,1001.24,VALID,0,VALID,94.8972,VALID,0,VALID,22.7647,VALID,15,VALID,1.61836,
2012-08-29, 03:18:05,VALID,1001.23,VALID,0,VALID,94.9125,VALID,0,VALID,22.7452,VALID,15,VALID,1.38828,
2012-08-29, 03:19:05,VALID,1001.21,VALID,0,VALID,94.9201,VALID,0,VALID,22.7274,VALID,15,VALID,1.43164,
2012-08-29, 03:20:05,VALID,1001.24,VALID,0,VALID,94.9583,VALID,0,VALID,22.6867,VALID,15,VALID,1.49492,
2012-08-29, 03:21:05,VALID,1001.27,VALID,0,VALID,95.088,VALID,0,VALID,22.6867,VALID,15,VALID,0.957422,
2012-08-29, 03:22:05,VALID,1001.25,VALID,0,VALID,95.2177,VALID,0,VALID,22.7257,VALID,15,VALID,0.574609,
2012-08-29, 03:23:05,VALID,1001.25,VALID,0,VALID,95.355,VALID,0,VALID,22.7647,VALID,15,VALID,0.780859,
2012-08-29, 03:24:05,VALID,1001.25,VALID,0,VALID,95.4237,VALID,0,VALID,22.8037,VALID,15,VALID,0.658984,
2012-08-29, 03:25:05,VALID,1001.21,VALID,0,VALID,95.5,VALID,0,VALID,22.8427,VALID,15,VALID,0.208203,
2012-08-29, 03:26:05,VALID,1001.18,VALID,0,VALID,95.5457,VALID,0,VALID,22.8427,VALID,15,VALID,0.0277344,
2012-08-29, 03:27:05,VALID,1001.16,VALID,0,VALID,95.5534,VALID,0,VALID,22.8232,VALID,15,VALID,0,
2012-08-29, 03:28:05,VALID,1001.17,VALID,0,VALID,95.5457,VALID,0,VALID,22.8232,VALID,15,VALID,0,
2012-08-29, 03:29:05,VALID,1001.15,VALID,0,VALID,95.5305,VALID,0,VALID,22.8232,VALID,15,VALID,0.760547,
2012-08-29, 03:30:05,VALID,1001.15,VALID,0,VALID,95.5839,VALID,0,VALID,22.8427,VALID,15,VALID,1.10938,
2012-08-29, 03:31:05,VALID,1001.16,VALID,0,VALID,95.6144,VALID,0,VALID,22.841,VALID,15,VALID,1.20742,
2012-08-29, 03:32:05,VALID,1001.16,VALID,0,VALID,95.6297,VALID,0,VALID,22.8232,VALID,15,VALID,0.971875,
2012-08-29, 03:33:05,VALID,1001.2,VALID,0,VALID,95.6144,VALID,0,VALID,22.7842,VALID,15,VALID,0.725391,
2012-08-29, 03:34:04,VALID,1001.15,VALID,0,VALID,95.5305,VALID,0,VALID,22.7257,VALID,15,VALID,0.595703,
2012-08-29, 03:35:04,VALID,1001.16,VALID,0,VALID,95.4771,VALID,0,VALID,22.6867,VALID,15,VALID,0.617578,
2012-08-29, 03:36:04,VALID,1001.13,VALID,0,VALID,95.4465,VALID,0,VALID,22.646,VALID,15,VALID,0.702734,
2012-08-29, 03:37:04,VALID,1001.13,VALID,0,VALID,95.3703,VALID,0,VALID,22.646,VALID,15,VALID,0.536328,
2012-08-29, 03:38:04,VALID,1001.11,VALID,0,VALID,95.3321,VALID,0,VALID,22.6282,VALID,15,VALID,0.247656,
2012-08-29, 03:39:04,VALID,1001.12,VALID,0,VALID,95.2711,VALID,0,VALID,22.6069,VALID,15,VALID,0.0925781,
2012-08-29, 03:40:04,VALID,1001.11,VALID,0,VALID,95.2329,VALID,0,VALID,22.5892,VALID,15,VALID,0.0375,
2012-08-29, 03:41:04,VALID,1001.1,VALID,0,VALID,95.2558,VALID,0,VALID,22.5696,VALID,15,VALID,0.0261719,
2012-08-29, 03:42:04,VALID,1001.11,VALID,0,VALID,95.2634,VALID,0,VALID,22.5696,VALID,15,VALID,0.226172,
2012-08-29, 03:43:04,VALID,1001.09,VALID,0,VALID,95.3168,VALID,0,VALID,22.5892,VALID,15,VALID,0.382813,
2012-08-29, 03:44:04,VALID,1001.07,VALID,0,VALID,95.355,VALID,0,VALID,22.5892,VALID,15,VALID,0.446484,
2012-08-29, 03:45:04,VALID,1001.06,VALID,0,VALID,95.3855,VALID,0,VALID,22.5874,VALID,15,VALID,0.678516,
2012-08-29, 03:46:04,VALID,1001.07,VALID,0,VALID,95.4008,VALID,0,VALID,22.6282,VALID,15,VALID,0.333594,
2012-08-29, 03:47:04,VALID,1001.05,VALID,0,VALID,95.4313,VALID,0,VALID,22.6282,VALID,15,VALID,0.501953,